This is the latest recevied weather packets stored in our database for station/object KE0PRS. If no packets are shown the sender has not sent any weather packets the latest 10 day(s).
| Time | Temp. | Humidity | Pressure | Rain* | Wind** | Luminosity | Snow |
|---|---|---|---|---|---|---|---|
| 1777051147 | 18.33° C | 40% | 1012.5 hPa | 0 mm | - | 752 W/m² | - |
| 1777050842 | 18.33° C | 41% | 1012.5 hPa | 0 mm | - | 747 W/m² | - |
| 1777050538 | 18.33° C | 40% | 1012.5 hPa | 0 mm | - | 737 W/m² | - |
| 1777050236 | 18.33° C | 40% | 1012.5 hPa | 0 mm | - | 728 W/m² | - |
| 1777049933 | 18.33° C | 40% | 1012.5 hPa | 0 mm | - | 718 W/m² | - |
| 1777049632 | 18.33° C | 41% | 1012.6 hPa | 0 mm | - | 709 W/m² | - |
| 1777049330 | 17.78° C | 40% | 1012.5 hPa | 0 mm | - | 698 W/m² | - |
| 1777049027 | 18.33° C | 39% | 1012.6 hPa | 0 mm | - | 685 W/m² | - |
| 1777048723 | 18.33° C | 41% | 1012.5 hPa | 0 mm | - | 676 W/m² | - |
| 1777048423 | 18.33° C | 40% | 1012.5 hPa | 0 mm | - | 661 W/m² | - |
| 1777048122 | 17.78° C | 41% | 1012.5 hPa | 0 mm | - | 648 W/m² | - |
| 1777047818 | 17.22° C | 41% | 1012.4 hPa | 0 mm | - | 634 W/m² | - |
| 1777047515 | 16.67° C | 43% | 1012.4 hPa | 0 mm | - | 621 W/m² | - |
| 1777047210 | 17.22° C | 42% | 1012.5 hPa | 0 mm | - | 607 W/m² | - |
| 1777046907 | 17.22° C | 42% | 1012.5 hPa | 0 mm | - | 593 W/m² | - |
| 1777046604 | 17.22° C | 42% | 1012.4 hPa | 0 mm | - | 578 W/m² | - |
| 1777046298 | 17.22° C | 42% | 1012.3 hPa | 0 mm | - | 564 W/m² | - |
| 1777045994 | 16.67° C | 43% | 1012.4 hPa | 0 mm | - | 549 W/m² | - |
| 1777045691 | 16.67° C | 42% | 1012.5 hPa | 0 mm | - | 533 W/m² | - |
| 1777045387 | 16.67° C | 43% | 1012.4 hPa | 0 mm | - | 517 W/m² | - |
| 1777045082 | 16.11° C | 44% | 1012.4 hPa | 0 mm | - | 503 W/m² | - |
| 1777044778 | 16.11° C | 42% | 1012.2 hPa | 0 mm | - | 485 W/m² | - |
| 1777044475 | 15.56° C | 44% | 1012.2 hPa | 0 mm | - | 469 W/m² | - |
| 1777044170 | 15.56° C | 44% | 1012.3 hPa | 0 mm | - | 450 W/m² | - |
| 1777043867 | 16.11° C | 43% | 1012.2 hPa | 0 mm | - | 438 W/m² | - |
* Rain latest hour (hover to see other rain measurements)
** Current wind speed in m/s (hover to see current wind gust speed)